TimeEDT,TemperatureF,Dew PointF,Humidity,Sea Level PressureIn,VisibilityMPH,Wind Direction,Wind SpeedMPH,Gust SpeedMPH,PrecipitationIn,Events,Conditions,WindDirDegrees,DateUTC
12:58 AM,61.5,61.5,100,30.16,10.0,Calm,Calm,-,N/A,,Clear,0,2013-04-10 04:58:00
1:58 AM,60.6,60.6,100,30.14,10.0,SE,2.3,-,N/A,,Clear,140,2013-04-10 05:58:00
2:58 AM,59.0,59.0,100,30.12,10.0,Calm,Calm,-,N/A,,Clear,0,2013-04-10 06:58:00
3:08 AM,59.0,59.0,100,30.11,2.5,East,1.2,-,N/A,,Clear,100,2013-04-10 07:08:00
3:13 AM,59.0,59.0,100,30.10,1.8,SE,2.3,-,N/A,,Clear,130,2013-04-10 07:13:00
3:18 AM,59.0,59.0,100,30.10,5.0,SE,3.5,-,N/A,,Clear,140,2013-04-10 07:18:00
3:23 AM,59.0,59.0,100,30.10,9.0,SE,2.3,-,N/A,,Clear,140,2013-04-10 07:23:00
3:58 AM,57.9,57.9,100,30.12,10.0,Calm,Calm,-,N/A,,Clear,0,2013-04-10 07:58:00
4:58 AM,57.6,57.6,100,30.12,10.0,Calm,Calm,-,N/A,,Clear,0,2013-04-10 08:58:00
5:28 AM,57.2,57.2,100,30.12,4.0,Calm,Calm,-,N/A,,Clear,0,2013-04-10 09:28:00
5:33 AM,57.2,57.2,100,30.12,4.0,Calm,Calm,-,N/A,,Clear,0,2013-04-10 09:33:00
5:38 AM,57.2,57.2,100,30.11,5.0,Calm,Calm,-,N/A,,Clear,0,2013-04-10 09:38:00
5:43 AM,57.2,57.2,100,30.12,4.0,Calm,Calm,-,N/A,,Clear,0,2013-04-10 09:43:00
5:53 AM,57.2,57.2,100,30.12,5.0,Calm,Calm,-,N/A,,Clear,0,2013-04-10 09:53:00
5:58 AM,56.7,56.7,100,30.13,10.0,Calm,Calm,-,N/A,,Clear,0,2013-04-10 09:58:00
6:03 AM,57.2,57.2,100,30.12,7.0,Calm,Calm,-,N/A,,Clear,0,2013-04-10 10:03:00
6:08 AM,55.4,55.4,100,30.12,2.0,Calm,Calm,-,N/A,,Clear,0,2013-04-10 10:08:00
6:18 AM,55.4,55.4,100,30.11,6.0,Calm,Calm,-,N/A,,Clear,0,2013-04-10 10:18:00
6:23 AM,55.4,55.4,100,30.11,10.0,Calm,Calm,-,N/A,,Clear,0,2013-04-10 10:23:00
6:58 AM,54.9,54.9,100,30.13,10.0,NNE,1.2,-,N/A,,Clear,20,2013-04-10 10:58:00
7:58 AM,56.8,56.8,100,30.14,10.0,ENE,1.2,-,N/A,,Clear,70,2013-04-10 11:58:00
8:58 AM,62.6,62.6,100,30.15,10.0,ENE,1.2,-,N/A,,Clear,60,2013-04-10 12:58:00
9:58 AM,70.9,64.0,79,30.17,10.0,Variable,5.8,-,N/A,,Clear,0,2013-04-10 13:58:00
10:58 AM,75.4,60.4,60,30.17,10.0,South,9.2,-,N/A,,Clear,170,2013-04-10 14:58:00
11:58 AM,77.4,60.1,55,30.16,10.0,Variable,4.6,-,N/A,,Partly Cloudy,0,2013-04-10 15:58:00
12:58 PM,79.2,58.8,50,30.14,10.0,East,3.5,-,N/A,,Partly Cloudy,90,2013-04-10 16:58:00
1:58 PM,80.6,59.4,48,30.11,10.0,SE,11.5,-,N/A,,Clear,140,2013-04-10 17:58:00
2:58 PM,82.8,58.3,43,30.09,10.0,SSE,10.4,-,N/A,,Clear,150,2013-04-10 18:58:00
3:58 PM,82.8,59.9,46,30.07,10.0,SE,9.2,18.4,N/A,,Clear,130,2013-04-10 19:58:00
4:58 PM,81.7,61.0,49,30.05,10.0,SSE,8.1,-,N/A,,Clear,150,2013-04-10 20:58:00
5:58 PM,79.7,61.3,53,30.04,10.0,SSE,9.2,-,N/A,,Clear,160,2013-04-10 21:58:00
6:58 PM,76.8,62.6,61,30.05,10.0,SSE,10.4,-,N/A,,Clear,150,2013-04-10 22:58:00
7:58 PM,72.5,64.2,75,30.06,10.0,ESE,8.1,-,N/A,,Clear,120,2013-04-10 23:58:00
8:43 PM,69.8,64.4,83,30.04,8.0,ESE,5.8,-,N/A,,Clear,120,2013-04-11 00:43:00
8:58 PM,67.8,64.2,88,30.05,7.0,ESE,5.8,-,N/A,,Clear,110,2013-04-11 00:58:00
9:58 PM,65.8,64.0,94,30.04,6.0,ESE,5.8,-,N/A,,Clear,110,2013-04-11 01:58:00
10:13 PM,66.2,64.4,94,30.03,9.0,ESE,4.6,-,N/A,,Clear,120,2013-04-11 02:13:00
10:58 PM,64.9,64.9,100,30.04,10.0,ESE,4.6,-,N/A,,Clear,120,2013-04-11 02:58:00
11:58 PM,64.2,64.2,100,30.02,10.0,ESE,3.5,-,N/A,,Clear,110,2013-04-11 03:58:00